Location: Newark
(55.1225°N, 33.2808°E)
Time: 14:27:08
(UTC+00:00)

ISS - Pass Details

Date: 20 September 2019
Orbit: 411 x 421 km, 51.6° (Epoch: 16 October)

Event Time Altitude Azimuth Distance (km) Brightness Sun altitude
Rises 17:51:33 0° 217° (SW) 2,336 0.2 -17.2°
Reaches altitude 10° 17:53:59 10° 200° (SSW) 1,477 -1.1 -17.5°
Enters shadow 17:54:21 12° 196° (SSW) 1,370 -1.3 -17.5°
